Location: Alladorf
(49.9620°N, 11.3790°E)
Time: 20:28:56
(UTC+00:00)

Cosmos 158 Rocket - Pass Details

Date: 29 November 2020
Orbit: 698 x 794 km, 74.0° (Epoch: 24 January)

Event Time Altitude Azimuth Distance (km) Brightness Sun altitude
Exits shadow 04:10:50 68° 216° (SW) 768 3.8 -24.6°
Drops below altitude 10° 04:15:24 10° 167° (SSE) 2,201 6.6 -23.8°
Sets 04:17:45 0° 165° (SSE) 3,131 7.4 -23.5°
